W4JCW Weather Reports


time (UTC)temp
C
wind
direction
speed
KPH
gust
KPH
rain 1hr
cm
rain 24hr
cm
rain mn
cm
humidity
%
barometer
mb
20260505130216 17 191 1.6 3.2 0.00 0.00 0.00 76 1016.1
20260505124706 16 67 1.6 4.8 0.00 0.00 0.00 76 1016.1
20260505124203 16 293 0.0 3.2 0.00 0.00 0.00 77 1016.0
20260505123659 16 112 0.0 1.6 0.00 0.00 0.00 79 1015.8
20260505123156 15 123 3.2 3.2 0.00 0.00 0.00 80 1015.7
20260505122652 15 89 0.0 3.2 0.00 0.00 0.00 82 1016.2
20260505122149 14 91 1.6 1.6 0.00 0.00 0.00 84 1016.0
20260505121646 14 116 0.0 3.2 0.00 0.00 0.00 85 1016.0
20260505121143 13 102 0.0 1.6 0.00 0.00 0.00 86 1015.7
20260505120639 13 79 3.2 3.2 0.00 0.00 0.00 87 1015.8
20260505120135 13 91 1.6 3.2 0.00 0.00 0.00 89 1015.7
20260505115629 13 131 0.0 3.2 0.00 0.00 0.00 90 1015.7
20260505115127 12 62 0.0 3.2 0.00 0.00 0.00 90 1015.8
20260505114624 12 83 0.0 3.2 0.00 0.00 0.00 91 1015.7
20260505114120 12 95 3.2 3.2 0.00 0.00 0.00 92 1015.6
20260505113617 12 111 1.6 3.2 0.00 0.00 0.00 92 1015.7
20260505113113 11 108 0.0 3.2 0.00 0.00 0.00 93 1015.8
20260505112610 11 110 1.6 3.2 0.00 0.00 0.00 94 1015.6
20260505112109 11 54 0.0 3.2 0.00 0.00 0.00 94 1015.8
20260505111608 11 70 1.6 3.2 0.00 0.00 0.00 94 1015.5
20260505111103 11 75 1.6 3.2 0.00 0.00 0.00 94 1015.6
20260505110600 11 89 0.0 3.2 0.00 0.00 0.00 94 1015.7
20260505102033 10 89 1.6 3.2 0.00 0.00 0.00 94 1015.1
20260505101531 10 99 1.6 3.2 0.00 0.00 0.00 94 1015.1
20260505101027 10 100 1.6 3.2 0.00 0.00 0.00 94 1014.9
20260505100524 10 89 3.2 3.2 0.00 0.00 0.00 94 1014.9
20260505100021 10 105 1.6 3.2 0.00 0.00 0.00 94 1014.8
20260505095517 10 102 1.6 1.6 0.00 0.00 0.00 94 1014.9
20260505095014 10 92 3.2 3.2 0.00 0.00 0.00 94 1014.9
20260505094510 10 85 3.2 3.2 0.00 0.00 0.00 93 1014.6
20260505094007 10 124 3.2 3.2 0.00 0.00 0.00 93 1014.8
20260505093503 10 117 1.6 4.8 0.00 0.00 0.00 93 1014.8
20260505093000 10 116 0.0 1.6 0.00 0.00 0.00 93 1014.7
20260505092458 10 78 1.6 3.2 0.00 0.00 0.00 93 1015.0
20260505091955 10 97 0.0 3.2 0.00 0.00 0.00 93 1014.7
20260505091453 10 89 1.6 3.2 0.00 0.00 0.00 92 1014.8
20260505090951 10 110 1.6 3.2 0.00 0.00 0.00 92 1014.9
20260505090449 10 107 3.2 3.2 0.00 0.00 0.00 92 1014.8
20260505085945 11 98 3.2 3.2 0.00 0.00 0.00 92 1014.6
20260505085443 11 110 3.2 3.2 0.00 0.00 0.00 92 1014.9
20260505084942 11 105 0.0 3.2 0.00 0.00 0.00 92 1014.7
20260505084440 11 100 1.6 3.2 0.00 0.00 0.00 91 1014.9
20260505083937 11 100 3.2 3.2 0.00 0.00 0.00 91 1014.7
20260505083434 11 130 0.0 1.6 0.00 0.00 0.00 91 1014.6
20260505082930 11 92 3.2 3.2 0.00 0.00 0.00 91 1014.5
20260505082426 11 117 1.6 3.2 0.00 0.00 0.00 91 1014.7
20260505081923 11 97 3.2 3.2 0.00 0.00 0.00 90 1014.5
20260505081420 11 85 1.6 3.2 0.00 0.00 0.00 90 1014.5
20260505080917 11 106 3.2 3.2 0.00 0.00 0.00 90 1014.6
20260505080413 11 117 0.0 3.2 0.00 0.00 0.00 89 1014.4
20260505075908 11 85 3.2 3.2 0.00 0.00 0.00 89 1014.4
20260505075405 11 80 3.2 3.2 0.00 0.00 0.00 89 1014.4
20260505074903 11 92 3.2 3.2 0.00 0.00 0.00 89 1014.1
20260505074400 11 91 3.2 3.2 0.00 0.00 0.00 89 1014.3
20260505073857 11 103 1.6 3.2 0.00 0.00 0.00 88 1014.5
20260505073355 12 71 0.0 3.2 0.00 0.00 0.00 88 1014.3
20260505072852 12 73 3.2 3.2 0.00 0.00 0.00 88 1014.2
20260505072348 12 78 3.2 3.2 0.00 0.00 0.00 87 1014.3
20260505071844 12 92 3.2 3.2 0.00 0.00 0.00 87 1014.2
20260505071340 12 73 3.2 3.2 0.00 0.00 0.00 87 1014.3
20260505070839 12 73 3.2 4.8 0.00 0.00 0.00 87 1014.3
20260505070335 12 102 1.6 3.2 0.00 0.00 0.00 86 1014.3
20260505065830 12 93 3.2 3.2 0.00 0.00 0.00 86 1014.2
20260505065327 12 103 0.0 3.2 0.00 0.00 0.00 86 1014.1
20260505064824 12 139 1.6 3.2 0.00 0.00 0.00 86 1014.3
20260505064321 12 103 3.2 3.2 0.00 0.00 0.00 85 1014.2
20260505063820 12 110 1.6 3.2 0.00 0.00 0.00 85 1014.1
20260505063315 12 101 1.6 3.2 0.00 0.00 0.00 85 1014.2
20260505062812 12 93 1.6 3.2 0.00 0.00 0.00 84 1014.2
20260505062309 12 80 0.0 3.2 0.00 0.00 0.00 84 1014.4
20260505061806 12 89 1.6 3.2 0.00 0.00 0.00 84 1014.6
20260505061304 12 118 1.6 3.2 0.00 0.00 0.00 84 1014.5
20260505060801 12 89 0.0 3.2 0.00 0.00 0.00 83 1014.6
20260505060258 13 108 1.6 3.2 0.00 0.00 0.00 83 1014.6
20260505055754 13 72 0.0 3.2 0.00 0.00 0.00 82 1014.6
20260505055250 13 122 0.0 1.6 0.00 0.00 0.00 82 1014.4
20260505054747 13 89 0.0 3.2 0.00 0.00 0.00 81 1014.6
20260505054245 13 97 1.6 3.2 0.00 0.00 0.00 81 1014.7
20260505053743 13 106 0.0 3.2 0.00 0.00 0.00 80 1014.5
20260505053239 13 117 1.6 3.2 0.00 0.00 0.00 80 1014.5
20260505052737 13 92 1.6 3.2 0.00 0.00 0.00 80 1014.8
20260505052233 13 89 3.2 3.2 0.00 0.00 0.00 80 1014.7
20260505051731 13 96 1.6 3.2 0.00 0.00 0.00 79 1014.7
20260505051229 13 116 0.0 1.6 0.00 0.00 0.00 79 1014.8
20260505050726 13 96 3.2 3.2 0.00 0.00 0.00 78 1014.9
20260505050224 14 113 0.0 3.2 0.00 0.00 0.00 77 1014.9
20260505041654 15 113 0.0 1.6 0.00 0.00 0.00 72 1014.8
20260505041151 15 55 1.6 3.2 0.00 0.00 0.00 72 1015.0
20260505040648 15 81 1.6 3.2 0.00 0.00 0.00 71 1015.0
20260505040146 15 114 1.6 3.2 0.00 0.00 0.00 70 1015.0
20260505035642 15 123 1.6 3.2 0.00 0.00 0.00 70 1014.9
20260505035138 16 121 0.0 3.2 0.00 0.00 0.00 70 1015.0
20260505034635 16 131 0.0 3.2 0.00 0.00 0.00 69 1014.9
20260505034132 16 98 0.0 3.2 0.00 0.00 0.00 69 1015.0
20260505033628 16 99 3.2 3.2 0.00 0.00 0.00 68 1014.9
20260505033127 16 107 1.6 3.2 0.00 0.00 0.00 67 1015.1
20260505032625 16 100 0.0 3.2 0.00 0.00 0.00 67 1015.0
20260505032121 16 109 0.0 3.2 0.00 0.00 0.00 66 1015.2
20260505031618 16 110 0.0 3.2 0.00 0.00 0.00 66 1015.0
20260505031114 16 98 3.2 3.2 0.00 0.00 0.00 65 1015.0
20260505030611 17 125 3.2 3.2 0.00 0.00 0.00 64 1015.3
20260505030107 17 112 0.0 3.2 0.00 0.00 0.00 64 1015.2
20260505025603 17 132 1.6 3.2 0.00 0.00 0.00 63 1015.0
20260505025102 17 117 1.6 3.2 0.00 0.00 0.00 63 1015.1
20260505024559 17 148 1.6 3.2 0.00 0.00 0.00 62 1014.9
20260505024056 17 139 0.0 3.2 0.00 0.00 0.00 61 1015.0
20260505023553 17 113 0.0 1.6 0.00 0.00 0.00 61 1014.9
20260505023051 18 113 0.0 3.2 0.00 0.00 0.00 60 1014.9
20260505022548 18 209 0.0 1.6 0.00 0.00 0.00 59 1014.8
20260505022045 18 133 0.0 0.0 0.00 0.00 0.00 59 1014.9
20260505021542 18 139 0.0 1.6 0.00 0.00 0.00 58 1014.8
20260505021039 18 269 0.0 3.2 0.00 0.00 0.00 58 1014.7
20260505020538 18 124 0.0 4.8 0.00 0.00 0.00 58 1014.6
20260505020036 18 116 1.6 1.6 0.00 0.00 0.00 58 1014.4
20260505015533 18 191 0.0 1.6 0.00 0.00 0.00 56 1014.5
20260505015030 18 120 0.0 1.6 0.00 0.00 0.00 55 1014.3
20260505014526 18 299 0.0 1.6 0.00 0.00 0.00 55 1014.4
20260505014024 19 142 0.0 3.2 0.00 0.00 0.00 54 1014.4
20260505013521 19 228 0.0 3.2 0.00 0.00 0.00 54 1014.4
20260505013018 19 166 0.0 3.2 0.00 0.00 0.00 52 1014.1
20260505012516 19 140 0.0 3.2 0.00 0.00 0.00 52 1013.9
20260505012013 18 142 0.0 3.2 0.00 0.00 0.00 52 1014.1
20260505011508 18 66 0.0 3.2 0.00 0.00 0.00 51 1014.1
20260505011006 18 72 0.0 3.2 0.00 0.00 0.00 51 1013.9
20260505010501 19 124 0.0 0.0 0.00 0.00 0.00 50 1013.9
20260505005957 19 126 0.0 0.0 0.00 0.00 0.00 49 1013.7
20260505005454 20 112 0.0 1.6 0.00 0.00 0.00 49 1013.5
20260505004952 20 91 0.0 1.6 0.00 0.00 0.00 48 1013.7
20260505004449 20 111 3.2 3.2 0.00 0.00 0.00 47 1013.4
20260505003945 20 130 0.0 3.2 0.00 0.00 0.00 47 1013.6
20260505003442 20 114 1.6 3.2 0.00 0.00 0.00 46 1013.2
20260505002939 20 135 0.0 3.2 0.00 0.00 0.00 45 1013.3
20260505002435 21 155 0.0 1.6 0.00 0.00 0.00 45 1013.3
20260505001933 21 125 0.0 1.6 0.00 0.00 0.00 44 1013.3
20260505001431 21 160 0.0 1.6 0.00 0.00 0.00 44 1013.3
20260505000928 21 53 0.0 3.2 0.00 0.00 0.00 43 1012.8
20260505000428 22 156 1.6 1.6 0.00 0.00 0.00 43 1013.1
20260504235922 22 87 1.6 1.6 0.00 0.00 0.00 42 1013.0
20260504235420 22 154 0.0 1.6 0.00 0.00 0.00 41 1012.9
20260504234915 22 89 0.0 1.6 0.00 0.00 0.00 41 1013.0
20260504234413 22 124 0.0 1.6 0.00 0.00 0.00 40 1012.8
20260504233909 23 269 0.0 1.6 0.00 0.00 0.00 40 1013.0
20260504233405 23 89 0.0 0.0 0.00 0.00 0.00 39 1013.0
20260504232902 23 179 1.6 1.6 0.00 0.00 0.00 39 1012.9
20260504232359 23 269 0.0 4.8 0.00 0.00 0.00 39 1012.8
20260504231856 23 291 3.2 3.2 0.00 0.00 0.00 38 1012.7
20260504231352 23 234 1.6 3.2 0.00 0.00 0.00 37 1012.8
20260504230849 24 236 3.2 3.2 0.00 0.00 0.00 37 1012.8
20260504230346 24 193 1.6 3.2 0.00 0.00 0.00 37 1012.6
20260504225845 24 180 1.6 4.8 0.00 0.00 0.00 35 1012.7
20260504225341 24 188 3.2 4.8 0.00 0.00 0.00 36 1012.7
20260504224839 24 216 3.2 4.8 0.00 0.00 0.00 35 1012.7
20260504224335 25 118 1.6 3.2 0.00 0.00 0.00 35 1012.4
20260504223832 25 227 0.0 4.8 0.00 0.00 0.00 35 1012.7
20260504223328 25 210 4.8 4.8 0.00 0.00 0.00 35 1012.9
20260504222824 25 209 4.8 4.8 0.00 0.00 0.00 34 1012.8
20260504222321 25 217 0.0 4.8 0.00 0.00 0.00 34 1012.6
20260504221820 25 213 4.8 4.8 0.00 0.00 0.00 34 1012.7
20260504221316 26 224 8.0 8.0 0.00 0.00 0.00 33 1012.8
20260504220813 26 221 3.2 6.4 0.00 0.00 0.00 33 1012.8
20260504220310 26 319 1.6 3.2 0.00 0.00 0.00 32 1012.7
20260504215808 26 202 6.4 6.4 0.00 0.00 0.00 31 1012.4
20260504215304 26 202 6.4 6.4 0.00 0.00 0.00 31 1012.5
20260504214759 26 210 4.8 4.8 0.00 0.00 0.00 31 1012.6
20260504214256 26 97 0.0 1.6 0.00 0.00 0.00 31 1012.5
20260504213753 26 199 3.2 4.8 0.00 0.00 0.00 31 1012.5
20260504213249 26 209 0.0 4.8 0.00 0.00 0.00 31 1012.7
20260504212746 26 219 1.6 4.8 0.00 0.00 0.00 32 1012.5
20260504212243 26 201 4.8 6.4 0.00 0.00 0.00 30 1012.6
20260504211740 26 335 3.2 3.2 0.00 0.00 0.00 32 1012.5
20260504211236 26 217 9.7 11.3 0.00 0.00 0.00 29 1012.6
20260504210734 26 234 0.0 4.8 0.00 0.00 0.00 30 1012.6
20260504210231 27 245 3.2 6.4 0.00 0.00 0.00 31 1012.7
20260504205728 27 247 1.6 3.2 0.00 0.00 0.00 30 1012.4
20260504205226 26 219 3.2 4.8 0.00 0.00 0.00 31 1012.5
20260504204724 27 40 1.6 4.8 0.00 0.00 0.00 30 1012.5
20260504204222 27 269 0.0 4.8 0.00 0.00 0.00 31 1012.8
20260504203721 26 342 1.6 3.2 0.00 0.00 0.00 31 1012.9
20260504203218 26 206 3.2 4.8 0.00 0.00 0.00 32 1012.9
20260504202717 26 212 3.2 4.8 0.00 0.00 0.00 31 1012.7
20260504202215 26 195 4.8 6.4 0.00 0.00 0.00 30 1013.0
20260504201712 27 238 3.2 6.4 0.00 0.00 0.00 32 1013.2
20260504201209 27 243 1.6 6.4 0.00 0.00 0.00 32 1013.3
20260504200707 27 233 1.6 4.8 0.00 0.00 0.00 32 1013.2
20260504200202 27 239 1.6 8.0 0.00 0.00 0.00 33 1013.2
20260504195659 27 171 4.8 4.8 0.00 0.00 0.00 30 1013.5
20260504195155 27 92 4.8 4.8 0.00 0.00 0.00 32 1013.3
20260504194652 27 218 1.6 4.8 0.00 0.00 0.00 32 1013.5
20260504194148 27 332 0.0 1.6 0.00 0.00 0.00 32 1013.4
20260504193644 26 189 4.8 6.4 0.00 0.00 0.00 29 1013.7
20260504193143 27 246 4.8 8.0 0.00 0.00 0.00 32 1013.7
20260504192640 27 183 3.2 4.8 0.00 0.00 0.00 33 1013.8
20260504192138 27 240 1.6 3.2 0.00 0.00 0.00 32 1013.7
20260504191636 26 204 4.8 6.4 0.00 0.00 0.00 31 1013.6
20260504191132 27 191 4.8 4.8 0.00 0.00 0.00 29 1014.0
20260504190628 26 31 1.6 3.2 0.00 0.00 0.00 30 1014.0
20260504190125 26 329 1.6 4.8 0.00 0.00 0.00 27 1014.0
20260504185621 26 333 4.8 4.8 0.00 0.00 0.00 26 1014.1
20260504185118 26 301 3.2 4.8 0.00 0.00 0.00 25 1014.2
20260504184614 26 151 1.6 4.8 0.00 0.00 0.00 24 1014.2
20260504184109 26 346 3.2 4.8 0.00 0.00 0.00 28 1014.2
20260504183607 26 214 3.2 6.4 0.00 0.00 0.00 25 1014.0
20260504183104 26 58 1.6 3.2 0.00 0.00 0.00 27 1014.4
20260504182601 26 345 3.2 4.8 0.00 0.00 0.00 27 1014.5
20260504182059 26 58 1.6 6.4 0.00 0.00 0.00 28 1014.3
20260504181556 26 192 0.0 4.8 0.00 0.00 0.00 27 1014.6
20260504181054 26 78 4.8 4.8 0.00 0.00 0.00 27 1014.6
20260504180553 26 349 0.0 4.8 0.00 0.00 0.00 28 1014.6
20260504180051 26 74 3.2 4.8 0.00 0.00 0.00 27 1014.7
20260504175548 25 252 3.2 6.4 0.00 0.00 0.00 30 1014.6
20260504175045 25 265 0.0 6.4 0.00 0.00 0.00 28 1014.8
20260504174543 25 269 0.0 4.8 0.00 0.00 0.00 28 1014.6
20260504174039 25 211 6.4 6.4 0.00 0.00 0.00 30 1014.7
20260504173536 25 250 0.0 3.2 0.00 0.00 0.00 30 1014.9
20260504173033 25 23 1.6 6.4 0.00 0.00 0.00 32 1014.9
20260504172529 25 240 1.6 4.8 0.00 0.00 0.00 31 1014.7
20260504172026 25 339 1.6 6.4 0.00 0.00 0.00 34 1015.1
20260504171523 25 338 1.6 4.8 0.00 0.00 0.00 33 1015.0
20260504171020 25 339 1.6 6.4 0.00 0.00 0.00 32 1015.0
20260504170516 25 26 4.8 6.4 0.00 0.00 0.00 31 1015.3
20260504160436 23 355 0.0 4.8 0.00 0.00 0.00 39 1015.8
20260504150900 21 301 0.0 4.8 0.00 0.00 0.00 44 1016.2
20260504150356 21 347 3.2 4.8 0.00 0.00 0.00 43 1016.5
20260504141327 19 65 0.0 3.2 0.00 0.00 0.00 60 1016.4
20260504140823 18 78 0.0 3.2 0.00 0.00 0.00 61 1016.5
20260504140319 18 35 1.6 3.2 0.00 0.00 0.00 59 1016.5